BREEZE-M DEB (TANK), 55843

Orbit data source: Space-Track

BREEZE-M DEB (TANK), 55843 is space debris in HEO originally from a launch on Sun, 12 Mar 2023 UTC launched from the Tyuratam Missile And Space Complex (TTMTR). Debris objects in space refer to the collection of defunct objects orbiting the Earth. Examples of debris include non-operational satellites, rocket bodies, and fragments generated from explosions, collisions, or faulty payload assembly.

Loading next visibility...
Identifier
55843, 2023-031C
Orbit
HEO
Country
Flag of CISCIS
Related business
Manufacturer
Khrunichev
Mission
Spacecraft
Bus & Motor
BRIZ TANK, Unknown motor
Mass
~1,000 kg wet, 1,000 kg dry
Launch date (UTC)
2023-03-12 (4 years ago)
Launch vehicle
Unknown
Launch site
Tyuratam Missile And Space Complex (TTMTR)
Object type
Payload
Rocket body
Debris
Shape & HBR
Torus, 2.0 m
Radar Cross Section
8.218 m², Large (>1 m²)

Expand to show TLE details & history
Last TLE update: 2 days ago

TLE from 2 days ago
0 BREEZE-M DEB (TANK)
1 55843U 23031C   26254.34647095  .00045084  00000-0  11395-2 0  9993
2 55843  48.6893 319.5586 5567345 145.5984 268.0233  4.80166670 31762
Epoch: 2026-09-11T08:18Z
TLE epoch observation values (Epoch: 2026-09-11T08:18:55.090Z)
Latitude
0.00001°
Longitude
-155.53265°
Altitude
12,564.558 km
Speed
3.903 km/s
True Right ascension
21h 18m 16s
True Declination
0° 00' 00"
Sunlit
Object was in daylight at epoch
Visualization orbit readout
Latitude
Unknown
Longitude
Unknown
Altitude
Unknown
Speed
Unknown
Apparent Right ascension
Unknown
Apparent Declination
Unknown
Sunlit
N/A
Visualization observer readout
Local Sidereal Time
17:32:54
Azimuth
Unknown
Elevation
Unknown
Doppler factor
Unknown
Orbital elements
Apogee altitude
16,727.18 km
Perigee altitude
200.885 km
Semi-major axis
14,842.169 km
Eccentricity
0.55673
Inclination
48.6893°
RAAN
319.5586°
Arg. of periapsis
145.5984°
True anomaly
214.44898°
Mean anomaly
268.0233°
Eccentric anomaly
240.31193°
Mean motion
1.20032 °/min
Orbital period
299.92 mins
BSTAR
0.0011395
Loading maneuver chart data...
Computing Atmospheric mass density...
Loading historical data...
Loading historical data...
Loading historical data...
Loading historical data...
Loading historical data...
Loading historical data...
Loading historical data...
Other satellites on launch #31 in the year 2023 (2023-03-12 UTC)

Documentation

Showing up to 5 results
|